Back to catalog

STARLINK-3901

AliveCommunicationsVLEO
NORAD 52574·PAYLOAD·🇺🇸 United States

Launched May 13, 2022 from Vandenberg Space Force Base

Loading…

Next Passes (next 24 hours)

TLE

FreshSource: CelesTrak SupGP

Epoch: Sep 14, 2026, 14:26 UTC

1 52574C 22051AQ  26257.60187500  .00060175  00000+0  62516-3 0  2570
2 52574  53.1588 331.0277 0001714  59.6728  72.1353 15.63944865    11

Track STARLINK-3901 in real time with AllMySat

Download on the App Store